Weather History for Niagara Falls, NY

Change the Weather History Date:

Tuesday, February 5, 2013

  Actual Average Record
Temperature  
Mean Temperature 20 °F -  
Max Temperature 26 °F 31 °F 49 °F (1991)
Min Temperature 14 °F 17 °F -2 °F (2009)
Degree Days  
Heating Degree Days 45    
Moisture  
Dew Point 13 °F    
Average Humidity 78    
Maximum Humidity 88    
Minimum Humidity 58    
Precipitation  
Precipitation 0.00 in - - ()
Snow  
Snow 0.00 in - - ()
Snow Depth 3.00 in    
Sea Level Pressure  
Sea Level Pressure 29.93 in    
Wind  
Wind Speed 5 mph (ENE)    
Max Wind Speed 16 mph    
Max Gust Speed -    
Visibility 6 miles    
Events Snow    
Averages and records for this station are not official NWS values.
T = Trace of Precipitation, MM = Missing Value Source: NWS Daily Summary

Daily Weather History Graph

Daily Weather History Graph

Search for Another Location

Airport:

Trip Planner

Search our weather history database for the weather conditions in past years. The results will help you decide how hot, cold, wet, or windy it might be!

Date:

Astronomy

Feb. 05, 2013 Rise Set
Actual Time 7:26 AM EST 5:33 PM EST
Civil Twilight 6:56 AM EST 6:03 PM EST
Nautical Twilight 6:22 AM EST 6:37 PM EST
Astronomical Twilight 5:49 AM EST 7:10 PM EST
Moon 3:09 AM EST (2/5) 12:46 PM EST (2/5)
Length of Visible Light 11h 07m
Length of Day
10h 07m
Waning Crescent, 27% of the Moon is Illuminated
Feb 5
Waning Crescent
Feb 10
New
Feb 17
First Quarter
Feb 25
Full
Mar 4
Last Quarter

Hourly Weather History & Observations

Time (EST) Temp. Windchill Dew Point Humidity Pressure Visibility Wind Dir Wind Speed Gust Speed Precip Events Conditions
12:53 AM 16.0 °F - 10.0 °F 77% 29.97 in 4.0 mi Calm Calm - 0.00 in Snow Light Snow
1:53 AM 15.1 °F 9.4 °F 10.9 °F 84% 29.97 in 3.0 mi North 3.5 mph - 0.00 in Snow Light Snow
2:06 AM 15.8 °F 10.2 °F 10.4 °F 79% 29.91 in 2.5 mi North 3.5 mph - 0.00 in Snow Light Snow
2:16 AM 15.8 °F 10.2 °F 12.2 °F 86% 29.91 in 3.0 mi NNE 3.5 mph - 0.00 in Snow Light Snow
2:24 AM 15.8 °F 8.6 °F 12.2 °F 86% 29.91 in 2.5 mi NNE 4.6 mph - 0.00 in Snow Light Snow
2:33 AM 15.8 °F 8.6 °F 12.2 °F 86% 29.91 in 3.0 mi NNE 4.6 mph - 0.00 in Snow Light Snow
2:53 AM 16.0 °F - 12.9 °F 88% 29.98 in 4.0 mi Calm Calm - 0.00 in Snow Light Snow
3:34 AM 17.6 °F 10.7 °F 12.2 °F 79% 29.91 in 2.5 mi NE 4.6 mph - 0.00 in Snow Light Snow
3:39 AM 17.6 °F 10.7 °F 12.2 °F 79% 29.91 in 3.0 mi NE 4.6 mph - 0.00 in Snow Light Snow
3:53 AM 17.1 °F 8.7 °F 12.9 °F 84% 29.97 in 2.5 mi NE 5.8 mph - 0.00 in Snow Light Snow
4:07 AM 17.6 °F 9.3 °F 12.2 °F 79% 29.90 in 3.0 mi NE 5.8 mph - 0.00 in Snow Light Snow
4:38 AM 15.8 °F 6.1 °F 12.2 °F 86% 29.91 in 4.0 mi NE 6.9 mph - 0.00 in Snow Light Snow
4:53 AM 16.0 °F 8.8 °F 12.0 °F 84% 29.98 in 5.0 mi ENE 4.6 mph - 0.00 in Snow Light Snow
5:53 AM 15.1 °F - 12.0 °F 88% 29.99 in 4.0 mi Calm Calm - 0.00 in Snow Light Snow
6:09 AM 15.8 °F - 12.2 °F 86% 29.92 in 4.0 mi Calm Calm - 0.00 in Snow Light Snow
6:53 AM 15.8 °F 10.2 °F 12.2 °F 86% 29.91 in 5.0 mi ENE 3.5 mph - N/A   Overcast
7:03 AM 15.8 °F 10.2 °F 10.4 °F 79% 29.91 in 5.0 mi ENE 3.5 mph - 0.00 in Snow Light Snow
7:44 AM 15.8 °F 10.2 °F 10.4 °F 79% 29.92 in 6.0 mi East 3.5 mph - 0.00 in Snow Light Snow
7:53 AM 14.0 °F 6.5 °F 10.9 °F 88% 29.99 in 6.0 mi East 4.6 mph - 0.00 in Snow Light Snow
8:39 AM 15.8 °F 8.6 °F 12.2 °F 86% 29.93 in 6.0 mi East 4.6 mph - 0.00 in   Mostly Cloudy
8:53 AM 16.0 °F 10.4 °F 12.0 °F 84% 30.00 in 6.0 mi East 3.5 mph - 0.00 in   Mostly Cloudy
9:53 AM 17.1 °F 11.7 °F 12.9 °F 84% 30.00 in 7.0 mi East 3.5 mph - N/A   Mostly Cloudy
10:53 AM 21.0 °F 16.2 °F 12.9 °F 71% 29.98 in 7.0 mi SSE 3.5 mph - N/A   Overcast
11:53 AM 23.0 °F - 12.0 °F 63% 29.96 in 10.0 mi Calm Calm - N/A   Overcast
12:53 PM 23.0 °F 14.7 °F 12.0 °F 63% 29.94 in 10.0 mi West 6.9 mph - N/A   Overcast
1:53 PM 24.1 °F 15.2 °F 12.0 °F 60% 29.90 in 10.0 mi SSW 8.1 mph - N/A   Overcast
2:53 PM 25.0 °F 14.8 °F 12.0 °F 58% 29.87 in 10.0 mi SSW 10.4 mph - N/A   Overcast
3:53 PM 25.0 °F 14.8 °F 12.9 °F 60% 29.88 in 10.0 mi SW 10.4 mph - N/A   Mostly Cloudy
4:53 PM 25.0 °F 14.8 °F 14.0 °F 63% 29.89 in 10.0 mi SW 10.4 mph - N/A   Mostly Cloudy
5:53 PM 24.1 °F 14.4 °F 16.0 °F 71% 29.90 in 10.0 mi WSW 9.2 mph - N/A   Mostly Cloudy
6:53 PM 21.0 °F 12.4 °F 15.1 °F 78% 29.91 in 10.0 mi SW 6.9 mph - N/A   Mostly Cloudy
7:53 PM 24.1 °F 11.5 °F 17.1 °F 75% 29.91 in 10.0 mi WSW 15.0 mph - N/A   Overcast
8:53 PM 24.1 °F 13.7 °F 17.1 °F 75% 29.91 in 10.0 mi SW 10.4 mph - N/A   Overcast
9:53 PM 24.1 °F 13.7 °F 18.0 °F 77% 29.90 in 10.0 mi SW 10.4 mph - N/A   Overcast
10:21 PM 26.6 °F 14.7 °F 17.6 °F 69% 29.84 in 10.0 mi WSW 15.0 mph - 0.00 in Snow Light Snow
10:53 PM 26.1 °F 13.6 °F 19.0 °F 75% 29.90 in 10.0 mi WSW 16.1 mph - 0.00 in Snow Light Snow
11:50 PM 26.6 °F 14.7 °F 19.4 °F 74% 29.85 in 9.0 mi WSW 15.0 mph - 0.00 in   Overcast
11:53 PM 26.1 °F 13.6 °F 19.9 °F 78% 29.91 in 10.0 mi WSW 16.1 mph - 0.00 in   Overcast